Regional Weather Roundup
Issued by NWS

Home | Current Version | Previous Version | Graphics & Text | Print | Product List | Glossary On
Versions: 1 2 3 4 5 6 7 8 9 10 11 12 13 14 15 16 17 18 19 20 21 22 23 24 25 26 27 28 29 30 31 32 33 34 35 36 37 38 39 40 41 42 43 44 45 46 47 48 49 50
113
ASUS43 KFSD 060202
RWRSD

WEATHER ROUNDUP FOR SOUTH DAKOTA
NATIONAL WEATHER SERVICE SIOUX FALLS SD
800 PM CST MON DEC 05 2016

NOTE: "FAIR" INDICATES FEW OR NO CLOUDS BELOW 12,000 FEET WITH NO
SIGNIFICANT WEATHER AND/OR OBSTRUCTIONS TO VISIBILITY.


SDZ001>005-009-010-012>017-060300-
NORTHWEST AND NORTH CENTRAL SOUTH DAKOTA

CITY           SKY/WX    TMP DP  RH WIND       PRES   REMARKS
BUFFALO          N/A     10   5  80 NW24G35   29.78R WCI -10
FAITH            N/A     11   6  81 NW35      29.82R WCI -12
MOBRIDGE       BLWGSNOW  17  10  74 NW33G44   29.73S VSB 1   WCI  -4
$$

SDZ012>016-024>037-041>051-057-063-072>074-060300-
SOUTHWEST AND SOUTH CENTRAL SOUTH DAKOTA

CITY           SKY/WX    TMP DP  RH WIND       PRES   REMARKS
RAPID CTY ARPT CLEAR     18  11  74 N21       29.85S WCI   1
PIERRE         PTCLDY    20  13  74 NW41G48   29.80R BLWGSNOWWCI  -1
CUSTER         FLURRIES  12   3  67 NW20G28   29.74R WCI  -6
ELLSWORTH AFB  FLURRIES  19  12  76 N23G31    29.84  WCI   1
PHILIP         CLEAR     19  10  68 NW23G31   29.89R WCI   2
PINE RIDGE     CLOUDY    19  17  92 SW5       29.87R WCI  12
SPEARFISH      FLURRIES  16   9  73 NW24G31   29.86S WCI  -3
WINNER         FAIR      25  16  68 NW22G30   29.83R WCI  10
$$

SDZ004>011-016>023-039-040-060300-
NORTHEAST SOUTH DAKOTA

CITY           SKY/WX    TMP DP  RH WIND       PRES   REMARKS
ABERDEEN       PTCLDY    24  17  74 W24G40    29.64R WCI   8
WATERTOWN      CLOUDY    29  25  85 W28G39    29.57R WCI  14
SISSETON         N/A     33  28  81 NW24G40   29.48R WCI  20
$$

SDZ017-020-022-023-036>040-048>070-060300-
SOUTHEAST SOUTH DAKOTA

CITY           SKY/WX    TMP DP  RH WIND       PRES   REMARKS
SIOUX FALLS    CLOUDY    32  27  81 W18G30    29.71R WCI  20
HURON          CLOUDY    26  20  77 NW25G36   29.75R WCI  11
CHAMBERLAIN    CLOUDY    26  18  71 NW31G37   29.82R WCI  10
MITCHELL       CLOUDY    29  20  69 NW32G43   29.79R WCI  13
YANKTON        CLOUDY   N/A N/A N/A W24G36    29.78R
$$

ABBREVIATIONS USED IN REMARKS
   TC - TEMPERATURE IN CELSIUS
  WCI - WIND CHILL INDEX
   HX - HEAT INDEX
  VSB - VISIBILITY





USA.gov is the U.S. government's official web portal to all federal, state and local government web resources and services.